Weather History for Augusta Bush, GA

Change the Weather History Date:

Monday, January 14, 2013

  Actual Average Record
Temperature  
Mean Temperature 67 °F 45 °F  
Max Temperature 80 °F 58 °F 84 °F (1932)
Min Temperature 54 °F 33 °F 14 °F (1893)
Degree Days  
Heating Degree Days 0 20  
Month to date heating degree days 149 280  
Since 1 July heating degree days 1075 1255  
Cooling Degree Days 2 0  
Month to date cooling degree days 8 0  
Year to date cooling degree days 8 0  
Growing Degree Days 18 (Base 50)    
Moisture  
Dew Point 58 °F    
Average Humidity 75    
Maximum Humidity 100    
Minimum Humidity 49    
Precipitation  
Precipitation 0.00 in 0.13 in 2.09 in (1944)
Month to date precipitation 0.09 1.73  
Year to date precipitation 0.09 1.73  
Sea Level Pressure  
Sea Level Pressure 30.11 in    
Wind  
Wind Speed 7 mph (South)    
Max Wind Speed 21 mph    
Max Gust Speed 26 mph    
Visibility 10 miles    
Events      
T = Trace of Precipitation, MM = Missing Value Source: NWS Daily Summary

Daily Weather History Graph

Daily Weather History Graph

Search for Another Location

Airport:

Trip Planner

Search our weather history database for the weather conditions in past years. The results will help you decide how hot, cold, wet, or windy it might be!

Date:

Astronomy

Jan. 14, 2013 Rise Set
Actual Time 7:31 AM EST 5:42 PM EST
Civil Twilight 7:04 AM EST 6:09 PM EST
Nautical Twilight 6:34 AM EST 6:39 PM EST
Astronomical Twilight 6:04 AM EST 7:09 PM EST
Moon 9:16 AM EST (1/14) 9:13 PM EST (1/14)
Length of Visible Light 11h 04m
Length of Day
10h 10m
Waxing Crescent, 11% of the Moon is Illuminated
Jan 14
Waxing Crescent
Jan 18
First Quarter
Jan 26
Full
Feb 3
Last Quarter
Feb 10
New

Hourly Weather History & Observations

Time (EST) Temp. Heat Index Dew Point Humidity Pressure Visibility Wind Dir Wind Speed Gust Speed Precip Events Conditions
12:53 AM 64.4 °F - 57.2 °F 77% 30.11 in 10.0 mi South 5.8 mph - N/A   Clear
1:53 AM 64.9 °F - 57.0 °F 75% 30.11 in 10.0 mi South 6.9 mph - N/A   Clear
2:53 AM 63.0 °F - 57.0 °F 81% 30.11 in 10.0 mi SSE 5.8 mph - N/A   Clear
3:53 AM 59.0 °F - 55.9 °F 90% 30.11 in 10.0 mi SE 3.5 mph - N/A   Clear
4:53 AM 59.0 °F - 55.9 °F 90% 30.09 in 10.0 mi SE 4.6 mph - N/A   Clear
5:53 AM 57.9 °F - 55.0 °F 90% 30.10 in 10.0 mi SSE 3.5 mph - N/A   Clear
6:53 AM 55.4 °F - 53.6 °F 94% 30.12 in 10.0 mi Calm Calm - N/A   Clear
7:53 AM 55.9 °F - 55.0 °F 97% 30.13 in 7.0 mi SSE 3.5 mph - N/A   Mostly Cloudy
8:53 AM 61.0 °F - 57.9 °F 90% 30.16 in 9.0 mi Calm Calm - N/A   Overcast
9:53 AM 66.9 °F - 60.1 °F 79% 30.16 in 10.0 mi South 5.8 mph - N/A   Mostly Cloudy
10:53 AM 75.0 °F - 61.0 °F 62% 30.14 in 10.0 mi SSW 9.2 mph - N/A   Partly Cloudy
11:53 AM 75.9 °F - 61.0 °F 60% 30.11 in 10.0 mi SSW 16.1 mph 20.7 mph N/A   Scattered Clouds
12:53 PM 78.1 °F - 61.0 °F 56% 30.09 in 10.0 mi SSW 15.0 mph 20.7 mph N/A   Overcast
1:53 PM 79.0 °F - 60.1 °F 52% 30.07 in 10.0 mi SSW 11.5 mph - N/A   Scattered Clouds
2:53 PM 80.1 °F 80.7 °F 59.0 °F 48% 30.07 in 10.0 mi SW 13.8 mph 19.6 mph N/A   Partly Cloudy
3:53 PM 78.1 °F - 59.0 °F 52% 30.08 in 10.0 mi SW 11.5 mph 16.1 mph N/A   Scattered Clouds
4:53 PM 77.0 °F - 59.0 °F 54% 30.09 in 10.0 mi SSW 6.9 mph - N/A   Partly Cloudy
5:53 PM 73.0 °F - 57.9 °F 59% 30.11 in 10.0 mi South 5.8 mph - N/A   Clear
6:53 PM 71.1 °F - 57.9 °F 63% 30.12 in 10.0 mi SSW 3.5 mph - N/A   Clear
7:53 PM 66.0 °F - 59.0 °F 78% 30.12 in 10.0 mi South 5.8 mph - N/A   Clear
8:53 PM 64.9 °F - 57.9 °F 78% 30.12 in 10.0 mi South 5.8 mph - N/A   Clear
9:53 PM 64.9 °F - 57.9 °F 78% 30.11 in 10.0 mi South 5.8 mph - N/A   Partly Cloudy
10:53 PM 60.1 °F - 57.0 °F 90% 30.12 in 10.0 mi South 5.8 mph - N/A   Clear
11:53 PM 64.9 °F - 59.0 °F 81% 30.12 in 8.0 mi South 6.9 mph - N/A   Clear